Wetbulb
59.21 58.79 58.27 57.66 57.36 57.51 57.80 57.43 56.63 56.92 57.68 58.34 58.12 57.97 58.00 57.90 57.75 57.91 58.32 58.71 58.86 59.04 59.27 59.54 59.99 60.16 59.81 58.65 58.40 58.32 58.17 57.98 57.70 56.77 56.10 56.06 56.63 57.15 57.56 57.51 57.51 57.16 56.87 56.59 56.36 56.06 55.86 55.84 55.80 55.65 55.32 54.83 54.88 54.99 55.11 55.24 54.72 54.39 54.26 54.10 53.89 53.41 52.99 52.85 52.83 52.33 51.85 51.64 52.16
59.15 58.69 57.69 56.10 55.91 56.92 57.60 57.12 56.54 56.51 57.15 58.05 58.12 58.05 58.18 58.07 58.01 58.16 58.41 58.86 59.24 59.57 59.90 60.05 60.18 60.14 59.71 58.73 58.28 58.22 58.03 57.86 57.53 56.84 56.36 56.12 56.43 57.06 57.54 57.76 57.45 57.21 57.06 56.80 56.50 56.24 56.06 55.84 55.74 55.62 55.31 54.93 54.80 54.75 54.84 55.21 55.03 54.58 54.10 53.84 53.97 53.76 53.44 53.12 53.23 52.83 52.38 52.17 52.22
59.24 58.83 58.38 57.99 57.86 57.91 57.91 57.68 57.25 57.22 57.34 57.84 58.06 58.15 58.24 58.23 58.43 58.56 58.78 59.15 59.26 59.37 59.55 60.03 59.88 59.68 59.42 59.01 58.63 58.31 58.16 58.05 57.72 57.25 56.79 56.46 56.41 56.81 57.36 57.84 57.55 57.12 56.88 56.86 56.78 56.59 56.26 55.84 55.51 55.10 54.81 55.04 54.74 54.66 54.60 54.72 54.56 54.39 54.13 53.92 54.25 54.09 53.81 53.64 53.54 53.31 53.12 53.06 52.57
59.29 59.00 58.71 58.46 58.29 58.20 58.14 57.88 57.52 57.33 57.41 57.67 57.83 58.06 58.09 58.33 58.53 58.76 58.89 58.73 58.90 58.90 58.98 59.02 59.16 59.21 59.23 59.12 58.68 58.29 57.95 57.02 57.34 57.38 57.02 56.54 56.36 56.54 57.02 57.71 57.46 57.34 57.29 57.20 56.96 56.68 56.32 55.88 55.74 55.33 55.04 54.99 54.76 54.70 54.80 54.95 54.49 54.39 54.54 54.52 54.54 54.30 54.04 53.93 53.77 53.59 53.38 53.32 52.99
59.26 59.13 58.88 58.67 58.31 58.36 58.36 58.22 57.78 57.63 57.55 57.73 57.67 57.78 57.83 57.99 58.28 58.48 58.58 58.33 58.39 58.52 58.71 58.75 59.01 59.10 59.01 59.09 58.63 58.36 57.89 57.00 55.40 56.01 56.99 56.76 56.45 56.42 56.70 57.26 57.32 57.38 57.37 57.18 56.94 56.74 56.38 55.87 55.98 55.84 55.51 55.19 55.22 55.23 55.17 55.01 54.66 54.56 54.56 54.81 54.72 54.45 54.29 54.05 53.98 53.80 53.61 53.32 53.30
59.27 59.26 59.10 58.89 58.68 58.63 58.64 58.53 58.02 57.83 57.71 57.70 57.51 57.33 57.39 57.54 57.87 58.05 58.03 57.87 58.06 58.31 58.17 57.50 57.59 57.81 58.10 58.90 58.59 58.32 57.97 57.60 56.42 56.37 56.77 56.78 56.58 56.29 56.22 56.59 57.20 57.55 57.56 57.26 56.94 56.59 56.36 56.02 56.14 55.88 55.73 55.50 55.58 55.48 55.23 55.00 54.74 54.57 54.46 54.46 54.51 54.54 54.40 54.14 54.09 53.93 53.53 53.19 53.14
59.56 59.33 59.17 58.97 58.76 58.77 58.72 58.67 58.28 58.01 57.95 57.70 57.37 57.13 57.04 57.29 57.51 57.60 57.71 57.82 58.01 57.86 57.46 56.69 57.02 57.56 58.05 58.54 58.29 57.91 57.55 57.36 57.06 56.92 56.86 56.91 56.61 56.25 56.06 56.19 57.05 57.39 57.35 57.16 56.79 56.63 56.49 56.36 56.22 55.58 54.85 54.24 55.16 55.34 55.26 55.16 54.73 54.56 54.30 54.25 54.38 54.46 54.39 54.27 54.26 54.03 53.67 53.20 52.96
59.86 59.53 59.24 58.93 58.95 58.88 58.84 58.65 58.37 58.11 57.94 57.67 57.30 57.04 57.08 57.20 57.29 57.45 57.56 57.68 57.77 57.53 57.34 57.10 57.82 58.07 58.14 58.11 57.64 57.27 57.14 57.27 57.14 56.97 56.97 56.78 56.40 56.16 56.17 56.16 56.87 57.11 57.14 57.00 56.83 56.57 56.63 56.61 56.37 55.88 55.43 55.06 55.33 55.35 55.27 55.22 54.80 54.50 54.22 54.16 54.31 54.52 54.71 54.78 54.80 54.55 54.08 53.46 53.09
59.98 59.68 59.42 59.07 58.90 59.00 58.86 58.75 58.42 58.15 57.87 57.72 57.46 57.26 57.13 57.16 57.33 57.32 57.46 57.44 57.25 57.20 57.30 57.53 57.61 57.69 57.68 57.48 57.14 57.02 57.09 57.43 57.52 57.52 57.30 56.59 56.28 56.06 55.95 56.18 56.58 56.88 57.03 56.99 56.75 56.67 56.57 56.64 56.37 56.14 55.90 55.65 55.57 55.50 55.41 55.22 54.83 54.54 54.40 54.26 54.25 54.36 54.66 54.99 54.95 54.67 54.37 53.91 53.43
59.95 59.73 59.47 59.14 58.95 58.95 58.88 58.83 58.49 58.18 57.92 57.79 57.60 57.41 56.79 55.51 56.48 57.12 57.34 57.25 56.94 57.13 57.37 57.42 57.31 57.25 57.18 57.13 57.32 57.39 57.60 57.93 58.05 58.03 57.59 56.65 56.01 55.84 55.95 56.14 56.24 56.49 56.70 56.88 56.88 56.63 56.49 56.50 56.22 56.14 56.05 55.96 55.73 55.51 55.44 55.26 55.01 54.77 54.64 54.66 54.41 54.27 54.40 54.66 54.71 54.51 54.29 54.11 53.82
59.86 59.70 59.46 59.09 58.93 58.67 58.65 58.83 58.45 58.21 57.97 58.03 57.77 57.53 56.99 55.84 56.64 57.14 57.32 57.25 57.35 57.39 57.29 57.37 57.12 56.90 56.84 57.32 57.75 58.03 58.09 58.46 58.27 58.14 57.75 57.17 55.97 55.83 55.99 55.87 55.95 56.20 56.40 56.76 56.90 56.83 56.59 56.44 56.06 55.91 55.91 55.90 55.66 55.49 55.40 55.26 55.03 54.87 54.76 54.94 54.61 54.33 54.30 54.32 54.66 54.64 54.55 54.37 54.05
59.88 59.67 59.48 59.25 59.07 58.78 58.78 58.80 58.55 58.28 58.13 58.12 58.01 57.87 57.64 57.47 57.56 57.36 57.46 57.71 57.46 57.46 57.45 57.67 57.35 56.98 56.96 57.35 57.87 57.99 58.08 58.37 58.30 57.93 57.69 57.36 56.63 56.22 56.02 55.75 55.75 55.86 56.11 56.53 56.94 57.01 56.81 56.35 55.99 55.73 55.51 55.56 55.77 55.83 55.54 55.11 54.97 54.82 54.70 54.90 54.76 54.64 54.47 54.48 54.72 54.96 55.09 54.82 54.31
59.89 59.79 59.61 59.37 59.13 58.93 58.85 58.79 58.73 58.58 58.35 58.23 58.25 58.13 57.95 57.76 57.62 57.50 57.48 57.65 57.37 57.45 57.67 57.77 57.48 57.14 57.08 57.20 57.68 57.98 58.20 58.19 58.10 57.82 57.52 57.31 56.91 56.59 56.29 55.96 55.80 55.80 55.84 56.25 56.74 56.96 56.93 56.50 56.02 55.64 55.48 55.49 55.77 55.73 55.48 55.21 55.01 54.80 54.72 54.66 54.66 54.66 54.72 54.62 54.84 54.94 54.99 54.62 54.31
59.99 59.78 59.50 59.36 59.19 58.92 58.78 58.70 58.75 58.57 58.45 58.26 58.33 58.26 58.18 58.06 57.62 57.42 57.37 57.53 57.29 57.42 57.59 57.62 57.29 57.09 56.97 57.11 57.36 57.58 57.83 57.94 57.82 57.66 57.35 57.08 57.00 56.86 56.68 56.51 56.22 55.87 55.87 56.13 56.52 56.74 56.81 56.58 56.15 55.79 55.62 55.44 55.54 55.54 55.38 55.30 55.21 55.09 54.94 54.78 54.63 54.69 54.69 54.82 54.86 54.87 54.71 54.28 54.04
59.74 59.72 59.46 59.42 59.10 58.91 58.76 58.73 58.69 58.50 58.27 58.23 58.41 58.38 58.31 58.20 57.61 57.30 57.32 57.59 57.45 57.49 57.60 57.56 57.26 57.05 57.03 57.24 57.15 57.20 57.34 57.49 57.49 57.30 57.08 56.75 56.75 56.80 56.83 56.85 56.65 56.33 56.07 55.95 56.18 56.34 56.65 56.59 56.21 56.01 55.84 55.58 55.56 55.60 55.58 55.42 55.38 55.34 55.17 55.09 54.86 54.71 54.82 54.86 54.88 54.87 54.65 54.30 54.17
59.63 59.51 59.41 59.29 58.97 58.75 58.65 58.65 58.65 58.48 58.27 58.17 58.36 58.36 58.34 58.20 57.96 57.48 57.22 57.52 57.58 57.61 57.65 57.52 57.47 57.50 57.39 56.81 56.90 56.88 56.91 56.83 56.79 56.85 56.73 56.51 56.53 56.51 56.66 56.80 56.80 56.57 56.30 55.99 55.87 55.91 56.09 56.18 56.05 55.88 55.68 55.64 55.70 55.79 55.75 55.64 55.48 55.34 55.23 55.17 54.97 54.90 54.74 54.55 54.71 54.66 54.62 54.36 54.16
59.37 59.28 59.36 59.24 58.90 58.59 58.35 58.50 58.60 58.51 58.33 58.16 58.17 58.34 58.35 58.29 58.18 57.50 56.84 56.99 57.54 57.56 57.54 57.44 57.53 57.52 57.41 56.76 56.76 56.74 56.57 56.38 56.16 56.20 56.26 56.26 56.16 56.26 56.35 56.49 56.49 56.64 56.52 56.10 55.78 55.62 55.58 55.46 55.32 55.26 55.17 55.32 55.46 55.72 55.85 55.79 55.61 55.44 55.27 55.07 55.01 54.90 54.59 53.99 54.20 54.35 54.22 53.96 53.75
59.21 59.12 59.15 59.09 58.79 58.45 58.27 58.23 58.43 58.35 58.25 58.03 58.19 58.24 58.27 58.30 58.13 57.64 57.08 56.89 57.46 57.59 57.49 57.44 57.58 57.58 57.44 57.19 57.04 56.70 56.37 56.20 55.87 55.75 55.83 55.81 55.96 55.98 56.02 56.17 56.25 56.39 56.41 56.18 55.87 55.49 55.31 55.00 54.72 54.57 54.61 54.66 55.05 55.49 55.76 55.75 55.84 55.55 55.27 55.03 54.82 54.66 54.48 54.03 54.11 54.05 53.88 53.50 53.23
58.99 59.04 58.90 58.90 58.66 58.31 58.10 57.77 58.08 58.20 58.23 58.10 58.19 58.26 58.29 58.32 58.26 58.00 57.66 57.43 57.33 57.43 57.58 57.50 57.53 57.52 57.38 57.22 57.19 56.61 56.04 56.23 55.81 55.64 55.48 55.50 55.57 55.73 55.74 55.84 56.10 56.15 56.21 56.05 55.87 55.49 55.17 54.78 54.30 54.13 54.02 54.22 54.58 55.18 55.56 55.70 55.75 55.52 55.11 54.89 54.69 54.48 54.33 54.13 54.03 53.82 53.69 53.46 52.93
58.87 58.79 58.76 58.74 58.62 58.33 58.14 57.86 58.10 58.21 58.27 58.12 58.06 58.12 58.15 58.24 58.27 58.02 57.73 57.56 57.43 57.58 57.72 57.61 57.53 57.47 57.33 57.22 56.97 56.62 56.34 56.29 56.06 55.67 55.34 55.28 55.15 55.22 55.30 55.39 55.44 55.63 55.75 55.81 55.64 55.40 55.17 54.78 54.15 53.78 53.60 53.65 54.04 54.48 54.88 55.27 55.16 54.94 54.83 54.69 54.52 54.35 54.30 54.32 54.30 54.05 53.82 53.58 53.29
58.92 58.87 58.79 58.71 58.57 58.49 58.35 58.35 58.38 58.27 58.21 58.10 57.96 57.90 57.94 58.02 58.08 57.96 57.80 57.46 57.55 57.72 57.69 57.58 57.44 57.33 57.14 56.97 56.73 56.64 56.53 56.14 56.13 55.89 55.42 55.13 54.86 54.90 54.93 54.97 55.06 55.19 55.31 55.43 55.33 55.17 55.01 54.63 54.06 53.61 53.34 53.15 53.43 53.95 54.40 54.53 54.30 54.24 54.12 54.34 54.29 54.24 54.34 54.40 54.43 54.26 54.08 53.82 53.49
59.10 59.10 59.00 58.72 58.73 58.51 58.49 58.48 58.47 58.36 58.15 58.02 57.96 57.88 57.80 57.85 57.85 57.88 57.85 57.66 57.50 57.53 57.52 57.47 57.33 57.14 56.92 56.62 56.45 56.39 56.27 55.97 56.05 55.89 55.67 55.33 55.07 54.96 54.92 55.05 55.06 55.04 55.07 55.04 55.03 54.87 54.53 54.20 53.59 53.24 52.93 52.85 53.11 53.36 53.67 53.72 53.77 53.64 53.59 53.59 53.80 53.90 54.04 54.15 54.23 54.27 54.23 54.04 53.75
59.25 59.32 59.18 58.83 58.76 58.12 57.80 58.15 58.30 58.13 58.05 57.93 57.82 57.74 57.69 57.60 57.70 57.78 57.73 57.58 57.17 57.09 57.11 57.22 56.95 56.84 56.64 56.41 56.24 56.07 55.90 55.79 55.80 55.73 55.75 55.71 55.55 55.45 55.27 55.26 55.19 55.04 54.97 55.04 54.95 54.65 54.15 53.41 52.88 52.62 52.72 52.86 53.12 53.28 53.51 53.65 53.56 53.68 53.69 53.48 53.41 53.46 53.52 53.73 53.79 53.94 54.02 53.87 53.75
59.26 59.35 59.44 59.34 58.99 58.61 58.24 58.26 58.15 57.93 57.80 57.70 57.71 57.65 57.62 57.59 57.66 57.53 57.48 57.32 57.13 56.97 56.97 57.07 56.72 56.43 56.26 56.16 56.06 55.83 55.64 55.46 55.35 55.34 55.34 55.48 55.42 55.26 55.12 54.86 54.75 54.64 54.53 54.32 53.69 53.09 52.61 52.30 52.46 52.54 52.55 52.84 53.24 53.59 53.77 53.93 54.05 53.99 53.90 53.64 53.36 53.16 53.03 52.97 52.85 52.85 52.93 53.06 52.94
59.11 59.29 59.38 59.56 59.26 59.01 58.70 58.36 58.09 57.85 57.77 57.80 57.78 57.70 57.64 57.66 57.63 57.49 57.33 57.12 57.04 56.88 56.83 56.74 56.58 56.36 56.28 56.06 55.90 55.75 55.51 55.18 55.06 54.86 54.80 54.70 54.65 54.65 54.55 54.25 54.12 54.22 53.94 52.78 49.87 48.52 48.28 48.95 50.87 52.20 53.03 53.35 53.71 53.97 54.12 54.14 54.22 54.17 54.06 53.90 53.42 53.21 52.92 52.28 52.06 51.81 51.86 51.98 51.96
59.00 59.11 59.27 59.66 59.50 59.25 58.87 58.50 58.25 58.12 58.06 58.06 58.01 57.91 57.83 57.71 57.68 57.54 57.38 57.12 56.98 56.84 56.79 56.70 56.58 56.03 55.66 56.16 56.01 55.82 55.50 55.27 54.94 54.62 54.31 54.10 53.87 54.00 54.11 54.22 54.21 54.31 53.59 51.04 48.00 46.60 46.28 46.52 47.52 49.28 51.56 54.27 54.22 54.26 54.32 54.43 54.42 54.42 54.34 54.13 53.85 53.63 53.37 52.97 52.31 51.96 51.86 51.86 51.86
58.86 58.98 59.18 59.60 59.56 59.39 59.08 58.82 58.60 58.52 58.36 58.28 58.17 58.15 58.04 58.08 58.05 57.89 57.49 57.24 57.07 56.94 56.85 56.81 56.78 55.34 54.48 56.14 56.08 55.91 55.64 55.38 55.01 54.64 54.19 54.00 53.74 53.67 53.88 54.13 54.42 54.73 53.63 49.91 47.31 45.92 45.53 45.63 46.12 47.28 49.75 53.97 54.67 54.75 54.69 54.82 54.68 54.60 54.60 54.52 54.46 54.19 53.77 53.59 53.00 52.35 51.91 51.88 51.65
58.66 58.72 58.86 59.08 59.34 59.49 59.51 59.33 58.92 58.68 58.52 58.60 58.52 58.52 58.48 58.35 58.13 57.89 57.67 57.50 57.32 57.01 56.90 56.96 56.52 55.91 55.72 55.94 55.83 55.72 55.64 55.69 55.46 55.20 54.87 54.62 54.30 54.24 54.22 54.44 54.96 54.19 51.85 48.02 46.43 45.40 45.09 45.16 45.52 46.12 47.63 50.77 54.51 55.40 55.16 55.08 54.87 54.94 54.74 54.62 54.42 54.13 53.89 53.79 53.28 52.32 51.59 51.41 50.90
58.58 58.52 58.37 58.34 58.70 59.16 59.40 59.39 59.19 58.95 58.95 58.83 58.85 58.85 58.77 58.53 58.23 57.96 57.84 57.64 57.25 56.96 56.68 56.75 56.30 56.01 55.78 55.25 55.05 55.24 55.45 55.76 55.81 55.85 55.78 55.48 55.00 54.84 54.93 55.03 55.01 52.41 48.25 44.11 44.26 44.27 44.27 44.44 44.52 44.78 45.79 48.46 53.46 55.67 56.08 55.70 55.52 55.12 55.01 54.98 54.69 54.39 53.89 53.38 52.38 51.56 50.90 50.54 50.24
58.67 58.33 57.90 57.73 58.17 58.62 59.12 59.34 59.38 59.42 59.34 59.38 59.20 58.96 58.70 58.46 58.24 58.04 57.85 57.65 57.34 56.96 56.70 56.52 56.04 55.50 54.95 54.66 54.64 54.85 55.15 55.68 55.98 56.08 55.92 55.67 55.33 55.26 55.09 54.37 55.14 51.94 46.57 41.54 42.66 43.26 43.46 43.69 43.52 43.44 43.83 45.35 50.63 54.42 56.26 55.98 55.52 54.95 54.39 54.16 53.75 53.35 52.89 52.20 51.42 50.77 50.24 50.12 50.08
58.68 58.42 57.99 57.71 57.77 58.16 58.59 59.11 59.45 59.61 59.59 59.45 59.24 58.84 58.52 58.29 58.19 58.07 58.11 57.87 57.50 56.59 55.98 55.87 55.51 55.16 54.79 54.81 54.82 54.76 54.91 55.35 55.85 56.10 56.11 56.07 54.92 55.08 55.56 55.54 55.42 51.45 45.54 40.37 41.89 42.82 43.15 43.47 43.17 42.86 42.81 43.16 48.53 52.90 55.30 54.51 54.11 53.40 52.75 52.46 52.05 51.48 50.91 50.24 49.45 48.87 48.78 48.87 48.82
58.74 58.44 58.16 57.83 57.81 57.90 58.15 58.61 59.07 59.41 59.58 59.23 58.97 58.66 58.50 58.27 58.17 58.23 58.17 58.03 57.48 56.67 55.86 55.56 55.33 55.09 54.86 54.77 54.81 54.93 55.06 55.64 55.93 55.93 55.95 55.91 55.93 55.95 55.76 55.52 55.00 49.46 42.44 38.20 39.85 41.04 41.91 42.47 42.52 42.38 42.24 42.58 47.47 51.69 54.08 53.38 52.54 51.94 51.46 51.09 50.91 50.74 50.48 50.40 49.86 49.23 48.83 48.74 48.29
58.72 58.57 58.33 57.93 57.93 57.92 57.99 58.02 58.43 58.88 59.16 59.05 58.80 58.50 58.29 58.21 58.24 58.20 58.24 57.92 57.42 56.87 56.37 55.72 55.48 55.33 55.11 54.91 55.05 54.98 55.20 55.48 55.61 54.82 53.88 54.29 55.42 55.83 55.62 54.78 53.40 46.08 38.66 37.30 37.85 38.82 39.87 40.83 40.98 41.07 41.28 41.81 46.84 51.05 53.08 51.84 51.32 50.93 50.61 50.39 50.08 49.45 48.69 48.01 47.43 46.79 46.52 46.79 47.74
58.75 58.61 58.38 58.08 57.90 57.92 57.88 57.66 57.76 57.93 58.18 58.43 58.44 58.30 58.18 58.10 57.90 57.87 57.68 57.22 56.95 56.69 56.35 56.07 55.90 55.74 55.63 55.50 55.35 55.31 55.31 55.09 55.38 55.27 55.05 55.02 55.60 55.48 55.11 54.62 49.53 42.54 37.21 37.20 37.16 37.76 38.73 39.75 40.07 40.43 40.96 41.89 47.11 50.43 51.89 50.95 50.88 50.66 50.13 49.37 47.70 45.80 43.87 42.09 41.15 40.92 41.41 42.71 45.26
58.63 58.50 58.29 58.15 58.05 57.96 57.86 57.53 57.30 57.16 57.14 57.42 57.72 57.82 57.76 57.65 57.56 57.26 56.67 55.44 55.09 55.50 55.98 55.93 55.93 55.94 55.83 55.52 55.64 55.53 55.11 54.72 55.36 55.60 55.61 55.89 56.01 55.37 53.96 51.30 44.65 39.77 37.12 37.02 36.79 37.48 38.37 39.03 39.62 40.38 41.68 43.78 48.64 51.00 51.71 51.17 50.97 50.04 48.28 45.71 42.70 40.27 38.61 37.66 37.33 37.40 38.05 39.29 41.30
58.60 58.39 58.10 57.96 57.93 57.82 57.77 57.49 57.14 56.75 56.40 56.30 56.51 56.57 56.69 56.65 56.67 56.46 55.44 53.31 53.52 54.48 55.21 55.24 55.48 55.56 55.44 55.34 55.69 55.40 55.22 55.86 55.96 55.84 55.50 55.21 55.52 54.74 52.21 46.93 41.87 38.64 37.13 36.85 36.70 37.30 38.13 38.57 39.25 40.60 43.11 47.29 50.56 51.86 51.95 51.96 50.85 48.15 44.59 40.94 38.52 37.17 36.42 36.01 35.86 35.81 36.12 36.79 37.89
58.51 58.22 57.85 57.56 57.57 57.62 57.58 57.45 57.12 56.59 56.13 55.51 55.06 54.92 55.16 55.54 55.60 55.35 54.59 53.01 54.06 54.51 54.67 54.62 54.75 54.99 55.43 55.86 56.07 55.19 54.02 53.76 54.13 53.68 52.34 49.89 50.32 49.51 46.89 42.36 39.77 37.94 36.99 36.85 36.97 37.38 38.07 38.69 39.24 41.18 44.64 49.80 51.86 52.40 52.23 52.07 49.91 46.07 41.93 38.43 36.80 35.90 35.45 35.00 34.64 34.46 34.43 34.52 35.14
58.40 57.98 57.52 57.22 57.33 57.31 57.42 57.37 57.08 56.57 55.99 55.13 54.43 54.07 54.11 54.43 54.80 54.59 53.65 52.06 54.24 54.63 54.43 54.51 54.97 55.26 55.04 53.31 51.60 48.59 45.77 44.68 45.90 46.26 45.00 41.72 41.37 41.06 40.35 38.77 38.30 37.53 36.99 36.94 37.20 37.69 38.43 39.35 39.68 41.30 44.68 50.21 51.90 52.41 52.02 51.35 48.37 44.58 40.75 37.55 35.97 35.03 34.50 34.05 33.56 33.17 33.04 33.02 33.34
57.98 57.57 57.14 56.85 56.96 57.07 57.10 57.19 56.92 56.53 55.97 55.10 54.48 54.03 53.82 53.88 54.00 53.59 52.97 52.48 55.36 56.02 55.48 54.83 53.50 51.95 49.36 44.66 41.22 38.82 37.48 37.53 37.68 38.15 38.36 37.86 37.28 37.10 37.32 37.59 37.45 37.18 36.95 36.90 37.34 38.05 38.78 39.87 40.28 41.19 43.63 48.46 51.69 52.41 51.80 50.36 46.70 42.86 39.21 36.50 34.93 33.98 33.33 32.97 32.57 32.21 32.12 32.16 32.87
57.41 57.15 56.81 56.61 56.71 56.74 56.84 56.87 56.80 56.51 56.02 55.37 54.89 54.40 53.84 53.31 52.46 52.56 53.15 53.52 54.16 53.08 51.06 49.19 46.17 43.55 41.45 39.74 38.65 37.52 36.53 36.36 36.27 36.16 36.08 36.30 36.22 36.15 36.15 36.39 36.56 36.51 36.51 36.91 37.57 38.29 39.05 40.00 40.85 41.76 44.03 48.51 51.66 52.42 51.35 49.19 44.85 40.92 37.75 35.63 34.33 33.21 32.45 32.09 31.84 31.44 31.22 31.20 31.69
57.07 56.75 56.33 56.13 56.39 56.50 56.61 56.64 56.71 56.59 56.29 55.91 55.65 54.81 53.83 53.24 52.65 52.70 52.36 51.10 48.65 46.35 44.26 42.66 41.55 40.61 39.59 38.28 37.17 36.05 35.20 34.81 34.69 34.62 34.59 34.44 34.54 34.77 35.03 35.18 35.40 35.75 36.11 36.74 37.45 38.30 39.19 40.14 40.90 42.03 44.07 47.83 51.22 51.80 50.50 47.56 42.77 38.84 36.09 34.69 33.57 32.49 31.55 30.94 30.68 30.43 30.31 30.11 30.34
MSLP
1006.52 1006.64 1006.84 1007.04 1007.16 1007.36 1007.52 1007.72 1007.92 1008.08 1008.28 1008.40 1008.64 1008.92 1009.20 1009.48 1009.64 1009.80 1009.92 1010.04 1010.16 1010.40 1010.64 1010.92 1011.08 1011.20 1011.28 1011.36 1011.40 1011.48 1011.48 1011.52 1011.52 1011.60 1011.72 1011.84 1012.04 1012.24 1012.36 1012.60 1012.72 1012.92 1013.08 1013.20 1013.36 1013.52 1013.72 1013.84 1013.96 1014.16 1014.36 1014.48 1014.60 1014.72 1014.84 1014.92 1015.04 1015.20 1015.28 1015.40 1015.48 1015.60 1015.80 1015.96 1016.08 1016.24 1016.40 1016.48 1016.60
1006.40 1006.60 1006.80 1006.96 1007.08 1007.28 1007.48 1007.72 1007.84 1007.96 1008.16 1008.28 1008.48 1008.72 1009.04 1009.28 1009.52 1009.72 1009.84 1009.92 1009.96 1010.16 1010.48 1010.72 1010.92 1011.04 1011.08 1011.16 1011.16 1011.20 1011.28 1011.28 1011.36 1011.40 1011.60 1011.72 1011.84 1011.96 1012.16 1012.36 1012.52 1012.72 1012.84 1012.96 1013.20 1013.40 1013.52 1013.64 1013.84 1014.04 1014.24 1014.36 1014.48 1014.64 1014.72 1014.80 1014.92 1015.04 1015.20 1015.36 1015.40 1015.52 1015.72 1015.84 1015.92 1016.04 1016.24 1016.28 1016.36
1006.28 1006.48 1006.64 1006.92 1007.04 1007.20 1007.40 1007.60 1007.72 1007.92 1008.04 1008.24 1008.40 1008.60 1008.84 1009.08 1009.36 1009.52 1009.72 1009.80 1009.84 1010.04 1010.24 1010.48 1010.64 1010.80 1010.84 1010.92 1010.92 1010.92 1011.04 1011.08 1011.16 1011.20 1011.40 1011.60 1011.64 1011.80 1011.96 1012.16 1012.28 1012.40 1012.60 1012.80 1012.96 1013.16 1013.36 1013.52 1013.72 1013.84 1014.04 1014.24 1014.36 1014.48 1014.52 1014.64 1014.72 1014.92 1015.04 1015.16 1015.20 1015.40 1015.60 1015.72 1015.80 1015.84 1016.04 1016.16 1016.24
1006.08 1006.36 1006.60 1006.72 1006.92 1007.04 1007.20 1007.40 1007.60 1007.80 1007.96 1008.16 1008.36 1008.60 1008.80 1008.96 1009.16 1009.40 1009.60 1009.72 1009.80 1009.92 1010.08 1010.24 1010.36 1010.48 1010.60 1010.72 1010.72 1010.72 1010.72 1010.84 1010.96 1011.08 1011.16 1011.36 1011.48 1011.60 1011.80 1011.92 1012.08 1012.24 1012.40 1012.60 1012.72 1012.92 1013.08 1013.36 1013.52 1013.64 1013.84 1014.04 1014.24 1014.36 1014.40 1014.52 1014.60 1014.72 1014.84 1014.96 1015.08 1015.20 1015.40 1015.52 1015.60 1015.72 1015.84 1015.96 1016.04
1006.04 1006.24 1006.36 1006.52 1006.72 1006.92 1007.08 1007.28 1007.48 1007.64 1007.84 1008.08 1008.28 1008.48 1008.64 1008.84 1009.04 1009.28 1009.48 1009.64 1009.64 1009.80 1009.84 1010.04 1010.16 1010.28 1010.40 1010.52 1010.52 1010.52 1010.60 1010.72 1010.92 1010.96 1011.04 1011.20 1011.28 1011.40 1011.52 1011.64 1011.84 1012.04 1012.16 1012.36 1012.52 1012.72 1012.92 1013.16 1013.36 1013.52 1013.64 1013.80 1013.92 1014.04 1014.08 1014.28 1014.48 1014.60 1014.64 1014.84 1014.96 1015.08 1015.20 1015.40 1015.48 1015.60 1015.72 1015.84 1015.84
1005.84 1006.08 1006.24 1006.40 1006.60 1006.72 1006.96 1007.20 1007.36 1007.48 1007.72 1007.96 1008.16 1008.36 1008.48 1008.72 1008.92 1009.16 1009.28 1009.40 1009.48 1009.60 1009.80 1009.96 1010.08 1010.24 1010.36 1010.52 1010.52 1010.48 1010.52 1010.64 1010.80 1010.92 1010.96 1011.04 1011.16 1011.28 1011.36 1011.52 1011.64 1011.84 1011.96 1012.16 1012.36 1012.48 1012.72 1012.96 1013.16 1013.28 1013.48 1013.64 1013.72 1013.80 1013.92 1014.08 1014.28 1014.40 1014.52 1014.72 1014.84 1014.96 1015.04 1015.20 1015.28 1015.40 1015.52 1015.72 1015.80
1005.64 1005.92 1006.08 1006.24 1006.48 1006.64 1006.92 1007.08 1007.28 1007.40 1007.64 1007.80 1007.96 1008.16 1008.28 1008.48 1008.64 1008.92 1009.04 1009.08 1009.28 1009.52 1009.80 1009.96 1010.08 1010.24 1010.36 1010.48 1010.52 1010.52 1010.52 1010.60 1010.72 1010.84 1010.92 1010.96 1010.96 1011.08 1011.20 1011.28 1011.48 1011.60 1011.80 1011.96 1012.16 1012.40 1012.52 1012.64 1012.92 1013.16 1013.28 1013.40 1013.52 1013.60 1013.72 1013.84 1014.04 1014.24 1014.48 1014.60 1014.72 1014.84 1014.96 1015.08 1015.16 1015.28 1015.48 1015.52 1015.64
1005.52 1005.72 1005.92 1006.08 1006.36 1006.52 1006.72 1006.92 1007.16 1007.36 1007.52 1007.64 1007.84 1007.96 1008.08 1008.24 1008.48 1008.64 1008.84 1009.04 1009.20 1009.40 1009.64 1009.84 1010.04 1010.16 1010.28 1010.36 1010.48 1010.48 1010.52 1010.60 1010.80 1010.92 1010.96 1011.04 1011.04 1011.04 1011.04 1011.08 1011.28 1011.40 1011.60 1011.80 1012.04 1012.28 1012.40 1012.52 1012.72 1012.92 1013.08 1013.20 1013.40 1013.48 1013.60 1013.72 1013.92 1014.08 1014.28 1014.40 1014.60 1014.64 1014.80 1014.84 1014.96 1015.16 1015.28 1015.36 1015.48
1005.40 1005.64 1005.84 1006.04 1006.24 1006.40 1006.60 1006.80 1006.96 1007.16 1007.36 1007.48 1007.64 1007.80 1007.96 1008.08 1008.36 1008.52 1008.72 1008.92 1009.04 1009.28 1009.52 1009.72 1009.92 1010.04 1010.16 1010.24 1010.36 1010.40 1010.48 1010.60 1010.80 1010.96 1011.08 1011.20 1011.16 1011.08 1011.04 1011.04 1011.16 1011.28 1011.40 1011.64 1011.92 1012.08 1012.28 1012.40 1012.60 1012.72 1012.84 1012.96 1013.16 1013.28 1013.40 1013.60 1013.80 1013.96 1014.16 1014.24 1014.40 1014.52 1014.64 1014.64 1014.80 1014.92 1015.04 1015.16 1015.28
1005.28 1005.52 1005.72 1005.92 1006.08 1006.28 1006.48 1006.64 1006.84 1007.04 1007.16 1007.36 1007.52 1007.72 1007.84 1008.04 1008.24 1008.40 1008.52 1008.72 1008.92 1009.16 1009.40 1009.60 1009.80 1009.92 1010.04 1010.16 1010.28 1010.40 1010.48 1010.64 1010.84 1010.96 1011.08 1011.08 1011.16 1011.08 1010.96 1010.96 1011.04 1011.08 1011.20 1011.48 1011.72 1011.96 1012.16 1012.36 1012.48 1012.60 1012.72 1012.80 1012.92 1013.08 1013.28 1013.48 1013.64 1013.84 1013.96 1014.08 1014.24 1014.40 1014.52 1014.52 1014.64 1014.72 1014.84 1014.92 1015.04
1005.08 1005.28 1005.52 1005.80 1005.96 1006.16 1006.36 1006.52 1006.80 1006.96 1007.08 1007.28 1007.48 1007.64 1007.80 1007.96 1008.16 1008.28 1008.48 1008.72 1008.92 1009.16 1009.36 1009.52 1009.72 1009.84 1009.92 1010.04 1010.24 1010.40 1010.48 1010.60 1010.80 1010.92 1011.04 1011.04 1011.04 1011.04 1010.96 1010.96 1010.96 1010.96 1011.04 1011.20 1011.40 1011.72 1011.96 1012.16 1012.36 1012.40 1012.52 1012.64 1012.80 1012.96 1013.16 1013.36 1013.52 1013.72 1013.84 1013.92 1014.04 1014.24 1014.36 1014.40 1014.48 1014.60 1014.64 1014.72 1014.80
1004.92 1005.16 1005.36 1005.52 1005.84 1006.08 1006.28 1006.40 1006.64 1006.84 1007.04 1007.20 1007.40 1007.60 1007.72 1007.92 1008.04 1008.24 1008.48 1008.72 1008.92 1009.08 1009.20 1009.48 1009.64 1009.72 1009.84 1009.96 1010.16 1010.36 1010.48 1010.52 1010.64 1010.80 1010.84 1010.92 1010.92 1010.92 1010.84 1010.92 1010.92 1010.92 1010.92 1010.96 1011.20 1011.52 1011.84 1012.04 1012.24 1012.36 1012.48 1012.52 1012.72 1012.84 1013.04 1013.20 1013.40 1013.52 1013.64 1013.80 1013.84 1014.04 1014.16 1014.24 1014.28 1014.36 1014.40 1014.52 1014.60
1004.84 1005.04 1005.20 1005.48 1005.72 1005.92 1006.08 1006.28 1006.52 1006.72 1006.92 1007.08 1007.28 1007.48 1007.64 1007.84 1008.04 1008.24 1008.40 1008.64 1008.84 1009.04 1009.16 1009.40 1009.52 1009.60 1009.72 1009.80 1009.96 1010.16 1010.28 1010.40 1010.48 1010.52 1010.60 1010.64 1010.72 1010.80 1010.80 1010.84 1010.84 1010.84 1010.84 1010.92 1011.04 1011.28 1011.64 1011.96 1012.08 1012.28 1012.40 1012.48 1012.52 1012.64 1012.84 1013.04 1013.20 1013.36 1013.48 1013.64 1013.72 1013.84 1013.96 1013.96 1014.04 1014.16 1014.24 1014.36 1014.40
1004.64 1004.84 1005.08 1005.28 1005.52 1005.80 1005.96 1006.16 1006.28 1006.52 1006.80 1006.96 1007.16 1007.28 1007.48 1007.80 1007.96 1008.08 1008.28 1008.48 1008.72 1008.92 1009.04 1009.16 1009.36 1009.40 1009.48 1009.52 1009.64 1009.84 1010.04 1010.16 1010.28 1010.36 1010.40 1010.40 1010.52 1010.60 1010.72 1010.80 1010.84 1010.80 1010.84 1010.84 1010.92 1011.08 1011.40 1011.72 1011.92 1012.08 1012.24 1012.36 1012.40 1012.52 1012.72 1012.84 1013.04 1013.16 1013.28 1013.48 1013.52 1013.60 1013.64 1013.80 1013.84 1013.96 1014.08 1014.24 1014.24
1004.48 1004.64 1004.92 1005.16 1005.36 1005.60 1005.80 1005.92 1006.08 1006.36 1006.52 1006.72 1006.92 1007.16 1007.36 1007.52 1007.80 1007.96 1008.16 1008.28 1008.48 1008.64 1008.80 1008.92 1009.04 1009.16 1009.28 1009.28 1009.40 1009.52 1009.64 1009.92 1010.04 1010.16 1010.24 1010.28 1010.36 1010.48 1010.60 1010.72 1010.80 1010.84 1010.84 1010.92 1010.92 1010.96 1011.16 1011.40 1011.60 1011.80 1011.96 1012.08 1012.24 1012.40 1012.52 1012.64 1012.84 1012.96 1013.08 1013.20 1013.36 1013.40 1013.48 1013.52 1013.64 1013.80 1013.92 1013.96 1014.04
1004.28 1004.52 1004.72 1004.92 1005.16 1005.40 1005.60 1005.72 1005.92 1006.08 1006.28 1006.52 1006.72 1006.92 1007.16 1007.36 1007.60 1007.80 1007.96 1008.08 1008.28 1008.48 1008.60 1008.64 1008.80 1008.96 1009.08 1009.16 1009.20 1009.28 1009.40 1009.60 1009.80 1009.92 1010.04 1010.08 1010.24 1010.28 1010.40 1010.60 1010.80 1010.84 1010.92 1010.92 1010.92 1010.96 1011.04 1011.20 1011.36 1011.52 1011.72 1011.92 1012.08 1012.24 1012.36 1012.52 1012.64 1012.80 1012.92 1013.04 1013.08 1013.16 1013.20 1013.28 1013.40 1013.52 1013.60 1013.72 1013.80
1004.08 1004.28 1004.52 1004.64 1004.92 1005.16 1005.36 1005.48 1005.60 1005.80 1006.04 1006.28 1006.48 1006.64 1006.84 1007.08 1007.28 1007.52 1007.80 1007.92 1008.08 1008.24 1008.36 1008.48 1008.60 1008.72 1008.84 1008.96 1009.08 1009.16 1009.28 1009.40 1009.52 1009.64 1009.80 1009.92 1010.04 1010.08 1010.24 1010.40 1010.60 1010.72 1010.80 1010.84 1010.92 1010.96 1010.96 1011.08 1011.20 1011.36 1011.48 1011.72 1011.84 1011.96 1012.16 1012.28 1012.40 1012.52 1012.72 1012.80 1012.92 1012.96 1012.96 1013.08 1013.16 1013.28 1013.40 1013.52 1013.60
1003.84 1004.04 1004.24 1004.36 1004.60 1004.84 1005.08 1005.20 1005.36 1005.52 1005.80 1005.96 1006.24 1006.40 1006.52 1006.80 1007.04 1007.28 1007.48 1007.72 1007.80 1007.96 1008.08 1008.24 1008.36 1008.48 1008.64 1008.80 1008.92 1009.04 1009.16 1009.20 1009.28 1009.40 1009.60 1009.72 1009.84 1009.96 1010.08 1010.16 1010.28 1010.40 1010.60 1010.64 1010.72 1010.80 1010.84 1010.96 1011.08 1011.20 1011.36 1011.48 1011.64 1011.80 1011.84 1011.96 1012.16 1012.36 1012.48 1012.60 1012.72 1012.80 1012.84 1012.96 1012.96 1013.08 1013.20 1013.36 1013.40
1003.60 1003.80 1003.96 1004.16 1004.40 1004.60 1004.80 1005.04 1005.16 1005.36 1005.48 1005.72 1005.96 1006.16 1006.28 1006.48 1006.72 1006.92 1007.16 1007.40 1007.52 1007.64 1007.84 1008.04 1008.16 1008.28 1008.40 1008.52 1008.72 1008.84 1008.96 1009.04 1009.16 1009.28 1009.40 1009.52 1009.64 1009.80 1009.92 1009.96 1010.16 1010.24 1010.36 1010.40 1010.48 1010.60 1010.72 1010.84 1010.96 1011.08 1011.20 1011.36 1011.48 1011.60 1011.64 1011.80 1011.92 1012.08 1012.24 1012.36 1012.48 1012.60 1012.64 1012.80 1012.84 1012.92 1012.96 1013.08 1013.08
1003.36 1003.52 1003.72 1003.92 1004.16 1004.40 1004.60 1004.80 1004.92 1005.04 1005.20 1005.52 1005.72 1005.84 1006.04 1006.16 1006.40 1006.60 1006.84 1007.08 1007.28 1007.40 1007.52 1007.80 1007.92 1008.04 1008.16 1008.28 1008.48 1008.64 1008.80 1008.92 1009.04 1009.08 1009.20 1009.36 1009.48 1009.60 1009.72 1009.84 1010.04 1010.08 1010.16 1010.28 1010.36 1010.48 1010.52 1010.64 1010.80 1010.92 1011.08 1011.20 1011.36 1011.40 1011.52 1011.64 1011.80 1011.92 1012.04 1012.16 1012.28 1012.40 1012.48 1012.52 1012.60 1012.64 1012.64 1012.72 1012.84
1003.08 1003.28 1003.48 1003.72 1003.96 1004.24 1004.36 1004.52 1004.72 1004.84 1005.04 1005.28 1005.48 1005.64 1005.80 1005.96 1006.16 1006.36 1006.52 1006.72 1006.92 1007.08 1007.36 1007.48 1007.60 1007.80 1007.92 1008.08 1008.24 1008.40 1008.60 1008.72 1008.84 1008.96 1009.08 1009.16 1009.28 1009.40 1009.52 1009.72 1009.92 1010.04 1010.08 1010.16 1010.28 1010.36 1010.40 1010.48 1010.64 1010.72 1010.92 1011.08 1011.20 1011.36 1011.48 1011.60 1011.72 1011.84 1011.96 1012.04 1012.08 1012.16 1012.24 1012.28 1012.36 1012.36 1012.40 1012.52 1012.60
1002.84 1003.04 1003.28 1003.60 1003.80 1003.96 1004.16 1004.28 1004.48 1004.64 1004.84 1005.04 1005.20 1005.40 1005.60 1005.80 1005.92 1006.04 1006.24 1006.48 1006.64 1006.92 1007.08 1007.20 1007.36 1007.52 1007.72 1007.84 1008.04 1008.24 1008.40 1008.52 1008.72 1008.84 1008.92 1009.04 1009.08 1009.20 1009.36 1009.52 1009.60 1009.80 1009.92 1010.04 1010.08 1010.16 1010.24 1010.36 1010.48 1010.60 1010.72 1010.92 1011.08 1011.20 1011.36 1011.48 1011.60 1011.72 1011.80 1011.92 1011.92 1011.96 1012.04 1012.04 1012.08 1012.16 1012.24 1012.28 1012.36
1002.64 1002.84 1003.08 1003.36 1003.52 1003.72 1003.96 1004.08 1004.28 1004.40 1004.60 1004.80 1005.04 1005.20 1005.36 1005.52 1005.64 1005.80 1005.96 1006.24 1006.40 1006.64 1006.84 1006.96 1007.16 1007.28 1007.48 1007.60 1007.80 1007.96 1008.24 1008.40 1008.48 1008.60 1008.64 1008.80 1008.92 1009.04 1009.08 1009.28 1009.40 1009.52 1009.60 1009.72 1009.80 1009.92 1010.04 1010.16 1010.28 1010.40 1010.60 1010.80 1010.92 1011.04 1011.16 1011.28 1011.40 1011.48 1011.60 1011.64 1011.80 1011.84 1011.84 1011.92 1011.92 1011.96 1012.04 1012.08 1012.16
1002.48 1002.64 1002.84 1003.04 1003.20 1003.48 1003.72 1003.92 1004.04 1004.24 1004.40 1004.52 1004.80 1004.96 1005.08 1005.20 1005.40 1005.60 1005.80 1005.96 1006.24 1006.40 1006.60 1006.80 1006.96 1007.08 1007.20 1007.36 1007.52 1007.72 1007.92 1008.08 1008.24 1008.36 1008.48 1008.52 1008.64 1008.80 1008.92 1009.08 1009.20 1009.28 1009.36 1009.48 1009.60 1009.72 1009.92 1010.08 1010.24 1010.36 1010.48 1010.60 1010.72 1010.80 1010.92 1011.04 1011.16 1011.20 1011.36 1011.48 1011.60 1011.64 1011.72 1011.80 1011.84 1011.84 1011.92 1011.92 1011.96
1002.28 1002.48 1002.60 1002.84 1003.04 1003.20 1003.40 1003.60 1003.84 1004.04 1004.16 1004.36 1004.52 1004.72 1004.92 1005.04 1005.20 1005.48 1005.64 1005.80 1005.96 1006.24 1006.40 1006.52 1006.72 1006.92 1007.04 1007.16 1007.28 1007.48 1007.64 1007.80 1007.96 1008.08 1008.24 1008.28 1008.40 1008.52 1008.72 1008.92 1009.04 1009.08 1009.16 1009.28 1009.40 1009.52 1009.64 1009.84 1010.04 1010.08 1010.24 1010.36 1010.48 1010.60 1010.72 1010.80 1010.92 1011.04 1011.16 1011.28 1011.40 1011.52 1011.64 1011.72 1011.80 1011.80 1011.80 1011.84 1011.96
1002.08 1002.28 1002.40 1002.52 1002.80 1003.04 1003.20 1003.40 1003.60 1003.80 1003.96 1004.08 1004.28 1004.52 1004.72 1004.84 1005.04 1005.20 1005.40 1005.60 1005.80 1005.96 1006.16 1006.36 1006.48 1006.64 1006.84 1006.96 1007.08 1007.20 1007.40 1007.60 1007.72 1007.84 1008.04 1008.24 1008.28 1008.40 1008.60 1008.72 1008.84 1008.92 1008.96 1009.04 1009.16 1009.28 1009.40 1009.52 1009.72 1009.84 1009.96 1010.16 1010.28 1010.48 1010.52 1010.64 1010.72 1010.80 1010.96 1011.08 1011.20 1011.28 1011.48 1011.60 1011.64 1011.64 1011.72 1011.84 1011.96
1001.84 1002.04 1002.24 1002.36 1002.52 1002.72 1002.96 1003.16 1003.40 1003.60 1003.80 1003.96 1004.08 1004.28 1004.48 1004.64 1004.84 1005.04 1005.20 1005.40 1005.60 1005.72 1005.92 1006.08 1006.28 1006.40 1006.60 1006.80 1006.92 1007.08 1007.28 1007.40 1007.52 1007.64 1007.84 1007.96 1008.08 1008.24 1008.36 1008.48 1008.60 1008.60 1008.64 1008.80 1008.84 1008.92 1009.08 1009.20 1009.36 1009.52 1009.64 1009.84 1009.96 1010.16 1010.36 1010.40 1010.48 1010.60 1010.72 1010.84 1010.92 1011.04 1011.20 1011.40 1011.48 1011.60 1011.72 1011.84 1011.92
1001.60 1001.80 1001.96 1002.08 1002.28 1002.52 1002.72 1002.96 1003.16 1003.36 1003.52 1003.64 1003.92 1004.08 1004.28 1004.48 1004.60 1004.80 1005.04 1005.20 1005.36 1005.52 1005.72 1005.92 1006.04 1006.24 1006.40 1006.60 1006.80 1006.92 1007.04 1007.20 1007.36 1007.48 1007.60 1007.80 1007.92 1008.04 1008.08 1008.24 1008.28 1008.36 1008.40 1008.48 1008.52 1008.64 1008.72 1008.92 1009.04 1009.16 1009.28 1009.48 1009.64 1009.80 1009.96 1010.08 1010.24 1010.36 1010.52 1010.64 1010.72 1010.80 1010.96 1011.08 1011.20 1011.40 1011.64 1011.80 1011.92
1001.36 1001.52 1001.64 1001.84 1002.04 1002.24 1002.40 1002.64 1002.84 1003.08 1003.28 1003.48 1003.64 1003.84 1004.04 1004.24 1004.40 1004.60 1004.80 1004.96 1005.16 1005.36 1005.48 1005.64 1005.84 1006.04 1006.28 1006.48 1006.60 1006.72 1006.84 1007.04 1007.16 1007.28 1007.40 1007.60 1007.64 1007.80 1007.84 1007.96 1008.04 1008.16 1008.24 1008.36 1008.40 1008.52 1008.60 1008.72 1008.84 1008.96 1009.04 1009.16 1009.28 1009.48 1009.60 1009.80 1009.92 1010.04 1010.16 1010.36 1010.40 1010.52 1010.80 1010.96 1011.16 1011.40 1011.60 1011.80 1011.92
1001.04 1001.28 1001.48 1001.60 1001.80 1001.92 1002.08 1002.28 1002.52 1002.80 1002.96 1003.16 1003.36 1003.52 1003.80 1003.96 1004.24 1004.40 1004.52 1004.64 1004.84 1005.04 1005.20 1005.36 1005.60 1005.84 1006.08 1006.24 1006.40 1006.64 1006.80 1006.84 1006.96 1007.04 1007.16 1007.20 1007.40 1007.48 1007.60 1007.80 1007.92 1008.04 1008.16 1008.28 1008.36 1008.40 1008.52 1008.72 1008.72 1008.84 1008.96 1009.04 1009.08 1009.20 1009.36 1009.48 1009.60 1009.80 1010.04 1010.24 1010.40 1010.60 1010.80 1011.08 1011.28 1011.52 1011.72 1011.92 1012.04
1000.80 1000.96 1001.16 1001.36 1001.52 1001.64 1001.80 1001.92 1002.16 1002.40 1002.72 1002.92 1003.08 1003.36 1003.52 1003.72 1003.92 1004.08 1004.24 1004.40 1004.60 1004.80 1004.96 1005.16 1005.40 1005.64 1005.84 1005.96 1006.24 1006.48 1006.60 1006.64 1006.80 1006.84 1006.96 1007.04 1007.28 1007.36 1007.36 1007.60 1007.72 1007.92 1008.16 1008.28 1008.24 1008.24 1008.28 1008.48 1008.64 1008.80 1008.92 1009.04 1009.08 1009.16 1009.28 1009.40 1009.60 1009.84 1010.08 1010.36 1010.52 1010.84 1011.08 1011.40 1011.64 1011.80 1011.96 1012.08 1012.16
1000.52 1000.72 1000.92 1001.16 1001.28 1001.40 1001.52 1001.64 1001.92 1002.16 1002.36 1002.60 1002.84 1003.04 1003.20 1003.48 1003.60 1003.72 1003.92 1004.16 1004.40 1004.60 1004.84 1005.04 1005.20 1005.40 1005.60 1005.80 1005.96 1006.24 1006.40 1006.48 1006.60 1006.72 1006.80 1006.80 1006.92 1007.04 1007.16 1007.28 1007.52 1007.92 1008.36 1008.64 1008.60 1008.48 1008.36 1008.28 1008.36 1008.60 1008.80 1008.92 1008.96 1009.08 1009.20 1009.48 1009.64 1009.96 1010.24 1010.52 1010.84 1011.08 1011.36 1011.60 1011.92 1012.04 1012.16 1012.28 1012.40
1000.24 1000.40 1000.64 1000.92 1001.04 1001.20 1001.36 1001.48 1001.64 1001.84 1002.08 1002.28 1002.52 1002.80 1002.96 1003.20 1003.36 1003.52 1003.72 1003.92 1004.16 1004.40 1004.64 1004.84 1005.04 1005.28 1005.48 1005.64 1005.80 1005.96 1006.08 1006.16 1006.28 1006.48 1006.64 1006.72 1006.84 1006.96 1007.08 1007.36 1007.52 1007.96 1008.40 1008.60 1008.64 1008.64 1008.60 1008.40 1008.36 1008.40 1008.60 1008.80 1008.92 1008.96 1009.16 1009.48 1009.72 1010.08 1010.48 1010.84 1011.16 1011.48 1011.72 1012.04 1012.28 1012.40 1012.52 1012.64 1012.64
999.92 1000.16 1000.40 1000.64 1000.80 1000.96 1001.16 1001.28 1001.48 1001.64 1001.84 1002.08 1002.28 1002.52 1002.80 1002.96 1003.20 1003.40 1003.60 1003.72 1003.92 1004.16 1004.40 1004.60 1004.84 1005.04 1005.20 1005.40 1005.60 1005.80 1005.92 1005.96 1006.16 1006.36 1006.48 1006.60 1006.72 1006.92 1007.16 1007.40 1007.80 1008.24 1008.48 1008.48 1008.40 1008.48 1008.48 1008.52 1008.52 1008.52 1008.52 1008.72 1008.92 1009.08 1009.28 1009.60 1009.96 1010.40 1010.84 1011.20 1011.64 1011.96 1012.28 1012.52 1012.80 1012.96 1013.08 1013.08 1012.96
999.64 999.92 1000.16 1000.36 1000.60 1000.80 1000.96 1001.16 1001.28 1001.52 1001.72 1001.92 1002.16 1002.36 1002.52 1002.80 1003.04 1003.20 1003.40 1003.60 1003.80 1004.04 1004.24 1004.40 1004.60 1004.84 1005.04 1005.20 1005.40 1005.60 1005.80 1005.92 1006.08 1006.28 1006.36 1006.52 1006.72 1006.96 1007.28 1007.64 1008.08 1008.48 1008.72 1008.64 1008.60 1008.48 1008.48 1008.52 1008.60 1008.60 1008.60 1008.72 1008.92 1009.16 1009.48 1009.84 1010.28 1010.80 1011.28 1011.80 1012.28 1012.60 1012.92 1013.16 1013.36 1013.48 1013.60 1013.52 1013.48
999.36 999.60 999.92 1000.16 1000.40 1000.64 1000.84 1001.04 1001.20 1001.40 1001.64 1001.92 1002.08 1002.24 1002.48 1002.64 1002.84 1003.04 1003.20 1003.48 1003.72 1003.96 1004.16 1004.36 1004.52 1004.80 1004.96 1005.16 1005.28 1005.48 1005.60 1005.80 1005.96 1006.16 1006.36 1006.60 1006.80 1007.08 1007.48 1007.96 1008.36 1008.80 1009.04 1008.96 1008.84 1008.72 1008.60 1008.60 1008.64 1008.64 1008.64 1008.80 1009.04 1009.36 1009.80 1010.16 1010.72 1011.28 1011.84 1012.40 1012.92 1013.20 1013.48 1013.72 1013.92 1014.04 1014.04 1014.04 1013.96
999.08 999.40 999.72 1000.04 1000.28 1000.52 1000.72 1000.92 1001.16 1001.40 1001.64 1001.84 1002.08 1002.28 1002.48 1002.60 1002.72 1002.92 1003.08 1003.36 1003.64 1003.92 1004.08 1004.36 1004.52 1004.72 1004.92 1005.08 1005.20 1005.60 1005.96 1006.24 1006.48 1006.72 1007.04 1007.40 1007.48 1007.64 1008.04 1008.40 1008.84 1009.20 1009.36 1009.20 1009.04 1008.92 1008.80 1008.72 1008.80 1008.80 1008.72 1008.84 1009.16 1009.60 1010.04 1010.52 1011.16 1011.72 1012.36 1012.92 1013.36 1013.64 1013.92 1014.16 1014.28 1014.40 1014.48 1014.52 1014.52
998.92 999.20 999.52 999.84 1000.16 1000.40 1000.60 1000.84 1001.16 1001.36 1001.60 1001.80 1002.04 1002.28 1002.40 1002.52 1002.72 1002.84 1003.04 1003.28 1003.48 1003.72 1004.04 1004.28 1004.52 1004.72 1005.04 1005.48 1005.92 1006.60 1007.20 1007.48 1007.48 1007.64 1007.96 1008.40 1008.60 1008.60 1008.72 1009.04 1009.52 1009.64 1009.60 1009.40 1009.20 1009.08 1008.96 1008.92 1008.96 1008.92 1008.92 1009.04 1009.36 1009.80 1010.24 1010.80 1011.40 1012.08 1012.72 1013.28 1013.72 1014.08 1014.36 1014.52 1014.64 1014.84 1014.96 1015.16 1015.16
998.72 999.04 999.40 999.80 1000.04 1000.36 1000.60 1000.84 1001.08 1001.36 1001.60 1001.84 1002.08 1002.24 1002.36 1002.48 1002.64 1002.84 1003.04 1003.28 1003.36 1003.60 1004.04 1004.40 1004.84 1005.20 1005.80 1006.40 1007.08 1007.80 1008.28 1008.52 1008.60 1008.64 1008.80 1009.08 1009.36 1009.40 1009.48 1009.64 1009.96 1010.04 1009.84 1009.64 1009.48 1009.28 1009.08 1009.04 1009.16 1009.16 1009.16 1009.20 1009.48 1009.84 1010.36 1010.92 1011.64 1012.36 1012.96 1013.52 1014.04 1014.36 1014.64 1014.92 1015.08 1015.36 1015.48 1015.60 1015.52
998.60 998.92 999.20 999.60 999.92 1000.24 1000.48 1000.80 1001.04 1001.20 1001.48 1001.80 1002.04 1002.24 1002.36 1002.48 1002.72 1002.92 1003.16 1003.40 1003.80 1004.24 1004.84 1005.48 1006.04 1006.40 1006.72 1007.08 1007.72 1008.52 1009.16 1009.28 1009.40 1009.48 1009.64 1009.84 1010.04 1010.08 1010.08 1010.16 1010.28 1010.28 1010.16 1009.96 1009.72 1009.48 1009.36 1009.20 1009.28 1009.28 1009.36 1009.48 1009.60 1009.92 1010.40 1011.04 1011.84 1012.60 1013.28 1013.80 1014.24 1014.60 1014.92 1015.20 1015.48 1015.64 1015.84 1015.92 1015.84
998.48 998.72 999.04 999.40 999.72 999.96 1000.28 1000.64 1000.92 1001.16 1001.36 1001.64 1001.84 1002.04 1002.28 1002.60 1002.92 1003.28 1003.72 1004.16 1004.64 1005.28 1005.92 1006.36 1006.72 1007.04 1007.40 1007.72 1008.36 1009.04 1009.48 1009.72 1009.96 1010.24 1010.36 1010.40 1010.48 1010.52 1010.52 1010.60 1010.60 1010.64 1010.52 1010.28 1010.04 1009.80 1009.60 1009.48 1009.40 1009.40 1009.48 1009.60 1009.80 1010.04 1010.52 1011.20 1012.08 1012.92 1013.60 1014.08 1014.48 1014.80 1015.16 1015.52 1015.80 1015.96 1016.08 1016.24 1016.24
Wind_Speed
10 9 9 8 8 8 7 7 7 8 9 9 10 9 9 8 7 7 6 7 8 9 9 8 7 7 10 14 17 18 18 18 17 17 17 17 15 14 14 14 15 15 15 14 13 12 11 11 9 7 6 6 7 7 7 7 8 8 8 7 7 7 7 8 8 8 9 9 8
11 10 9 9 8 7 7 6 6 7 8 9 9 9 9 9 8 7 7 7 9 10 10 8 8 9 11 14 16 17 18 18 18 17 17 17 16 15 14 14 15 16 16 16 14 12 10 11 10 8 7 6 6 7 8 8 8 8 8 9 7 7 7 8 8 9 9 9 8
12 11 10 10 9 8 8 7 7 8 9 8 8 9 9 9 8 7 7 7 9 10 10 8 8 10 12 14 14 15 16 17 18 17 16 16 15 15 14 14 15 16 17 16 15 13 11 11 10 8 7 7 7 7 7 8 8 8 8 9 7 6 6 7 8 8 7 7 7
13 12 11 11 12 11 10 8 9 10 10 8 8 8 9 9 8 7 7 8 10 10 10 9 9 10 12 13 13 14 14 15 17 17 16 15 15 14 13 13 14 16 17 17 16 15 13 12 10 8 8 9 9 9 8 7 8 7 7 8 7 6 6 6 7 6 6 6 7
13 13 12 12 13 13 11 10 11 11 10 8 8 8 9 8 8 7 7 7 8 9 10 10 9 9 11 12 13 13 14 15 15 15 15 15 15 14 13 13 14 15 16 17 17 16 14 13 9 8 8 9 9 8 8 8 9 8 7 6 6 6 6 6 6 6 6 6 6
13 13 13 12 14 13 11 10 12 12 11 9 9 10 9 9 8 8 8 9 9 10 10 10 9 9 10 12 12 13 13 13 13 13 13 14 14 14 13 13 13 14 15 16 16 16 15 13 9 8 8 8 8 9 9 10 9 8 7 6 6 6 6 7 6 6 6 7 7
14 14 14 14 14 13 12 11 12 12 11 10 12 12 12 11 11 11 11 11 10 9 9 8 8 9 10 11 11 11 11 10 9 10 11 12 12 13 14 13 14 14 15 15 15 15 14 13 10 8 7 7 7 8 10 10 9 8 8 8 6 6 7 8 6 6 7 9 10
14 14 14 14 15 14 13 13 12 12 11 10 12 14 15 14 14 14 13 12 11 10 8 7 9 11 11 12 11 10 9 8 6 6 7 9 11 12 12 13 13 14 15 15 14 14 13 11 9 8 8 7 6 7 9 10 10 9 9 9 7 7 7 7 7 8 8 10 11
13 14 14 14 14 14 14 14 14 13 13 12 13 14 15 15 16 15 14 12 12 10 9 8 10 12 13 11 9 8 8 8 7 6 6 8 9 9 10 10 12 13 14 14 14 13 12 10 8 8 7 7 7 7 9 11 11 11 11 10 8 8 8 9 9 9 10 11 12
13 14 14 14 15 14 14 14 14 14 14 14 14 15 15 14 15 14 13 12 11 11 10 9 10 11 11 10 8 7 7 8 8 8 8 9 9 9 9 9 11 13 14 14 13 13 12 9 8 8 8 8 8 9 10 11 12 12 11 9 9 9 10 10 10 11 11 11 12
14 14 14 14 15 15 14 14 13 14 14 13 14 15 14 13 14 13 12 11 11 11 11 10 11 10 10 9 8 8 8 9 10 11 11 11 10 9 9 9 10 12 13 14 13 12 10 8 8 8 9 8 9 9 10 11 11 12 12 10 10 11 11 11 11 11 11 12 13
14 14 14 14 15 15 14 14 12 12 13 13 14 14 14 14 14 13 12 12 12 12 12 11 11 11 10 9 10 10 10 11 13 13 14 14 12 11 10 9 9 11 12 13 13 12 10 9 9 9 9 9 8 8 9 10 11 12 12 12 12 12 12 13 12 12 11 12 12
14 14 14 14 15 15 14 13 12 12 12 13 14 14 13 13 14 14 14 14 13 12 12 12 12 12 12 11 12 13 13 14 15 15 15 15 13 12 11 10 9 9 10 12 13 13 12 11 11 10 10 10 9 9 9 11 11 12 12 13 13 13 13 14 13 13 12 12 12
15 15 15 15 15 15 14 13 12 11 12 14 13 13 13 13 14 14 14 15 14 14 13 13 13 12 12 13 13 14 15 16 17 17 16 15 15 14 14 12 11 9 9 9 12 13 14 14 13 12 11 11 10 10 10 11 11 12 12 13 13 14 14 14 14 13 13 13 12
15 15 15 15 16 15 14 13 11 11 12 13 13 13 13 13 13 14 14 15 15 15 14 13 13 12 13 14 14 15 16 17 18 18 18 17 16 16 15 15 14 12 10 9 10 12 15 16 15 14 12 12 12 11 11 11 12 12 13 13 14 14 14 14 14 13 13 13 13
16 16 16 16 16 15 14 13 11 11 12 13 13 13 13 12 13 14 15 16 15 14 14 14 13 13 13 14 14 15 16 16 17 18 18 18 17 17 16 17 16 15 14 12 11 12 13 15 15 14 13 13 12 12 12 12 12 13 13 14 14 14 14 14 14 13 13 14 14
17 17 17 17 17 16 15 14 12 11 12 13 14 14 14 13 13 14 15 16 15 14 15 16 15 14 14 14 14 14 14 15 16 17 17 18 18 17 17 17 18 18 17 16 15 14 14 14 14 14 14 13 13 13 13 13 13 13 14 14 14 14 14 13 13 13 13 14 14
17 17 17 17 17 17 16 15 13 13 13 14 15 15 14 14 14 14 15 16 16 16 17 17 16 15 15 15 14 14 13 14 15 15 16 17 17 17 17 18 18 18 18 18 17 16 15 14 14 14 13 13 13 13 13 13 14 14 14 14 14 14 13 13 13 12 12 13 13
17 17 17 17 17 17 16 16 15 14 14 15 15 15 15 15 15 15 16 17 17 18 18 18 17 16 16 16 16 15 14 14 15 15 16 16 16 17 17 17 18 18 18 18 18 17 16 15 15 14 14 13 13 13 13 14 14 14 14 14 14 13 13 13 13 12 12 12 12
17 17 17 17 17 17 17 16 15 14 14 14 15 16 16 16 16 17 17 18 18 18 19 18 17 17 17 17 17 16 15 14 15 15 15 15 15 16 16 17 17 17 18 18 18 18 17 16 16 15 14 14 14 14 14 13 13 13 13 13 13 13 13 14 13 13 13 12 12
16 17 17 17 17 17 17 16 15 15 14 15 15 16 16 16 16 17 18 18 18 18 18 18 18 17 17 17 17 17 16 14 15 15 15 15 15 15 16 16 16 17 17 18 18 18 18 18 17 16 15 14 14 13 13 12 12 12 12 11 12 13 14 14 14 14 14 13 12
16 16 16 16 17 17 17 17 16 15 15 15 15 16 16 16 16 16 17 17 17 18 18 18 18 17 17 17 17 17 16 14 15 15 15 15 15 15 16 16 17 17 18 19 19 20 19 19 17 16 14 13 13 13 12 12 11 12 12 12 12 13 13 14 14 14 13 13 12
16 16 16 16 16 17 16 16 16 15 15 15 15 16 16 15 15 16 16 16 16 17 17 16 16 16 16 16 16 16 16 16 16 16 16 16 16 17 17 16 17 18 19 19 19 18 18 16 16 15 14 13 13 13 13 12 12 12 12 13 13 13 13 13 12 12 12 12 11
16 16 15 14 16 16 16 16 16 15 15 15 15 16 16 15 15 15 15 15 16 16 16 14 14 15 15 15 16 17 17 17 17 18 18 18 17 17 17 16 16 16 16 15 15 15 15 13 13 13 13 12 12 12 13 13 13 14 14 14 14 13 12 11 11 11 11 11 10
16 16 16 15 16 16 16 16 16 15 15 15 15 16 16 15 15 14 14 15 16 16 16 15 15 14 14 14 15 16 17 18 18 18 18 18 17 16 15 13 13 13 13 12 14 16 16 14 13 12 12 12 12 12 12 13 14 14 14 14 13 12 11 10 9 9 9 9 7
16 16 16 17 17 17 17 16 16 16 15 15 16 16 16 16 15 15 15 15 16 16 17 16 16 15 14 14 15 16 16 16 16 17 16 16 16 15 14 13 12 11 11 12 16 19 20 19 17 15 13 12 12 12 12 13 14 14 14 14 13 12 11 10 9 8 7 6 6
16 16 16 17 17 18 17 17 16 16 16 16 16 16 16 16 15 15 15 15 16 16 16 16 16 15 14 14 15 16 15 14 15 15 16 15 16 16 15 13 12 11 11 14 18 21 22 23 22 19 17 13 13 12 12 12 13 14 14 13 13 13 12 11 10 8 7 6 6
16 16 16 16 17 18 18 18 17 17 17 17 17 17 17 17 16 16 16 16 16 16 15 15 15 13 12 12 13 14 14 14 14 14 15 15 16 16 15 13 12 12 12 15 19 21 22 23 24 23 20 16 14 13 13 12 13 12 12 12 12 12 12 11 10 8 8 7 6
17 16 16 16 17 17 18 19 19 18 18 18 17 17 17 17 17 17 17 16 16 15 14 13 12 10 10 10 11 12 13 14 13 13 14 15 15 15 14 13 11 11 11 14 16 18 19 20 21 21 21 18 14 12 11 12 12 11 11 11 10 10 10 8 7 6 6 6 5
18 17 16 15 16 17 18 19 19 19 18 17 17 18 18 17 18 18 18 17 17 16 14 11 10 10 10 11 10 10 10 11 11 12 13 14 15 14 13 11 9 9 10 15 16 16 16 17 17 17 17 17 13 11 10 10 10 9 8 7 6 6 5 5 5 5 5 5 5
18 17 16 16 16 16 17 18 19 19 18 17 18 18 18 18 18 18 18 18 16 14 12 11 12 12 12 12 10 9 9 8 9 10 11 12 13 12 11 10 9 8 8 11 13 15 16 17 16 16 15 14 10 8 7 7 6 5 4 4 5 5 6 6 6 6 6 5 5
18 18 17 17 16 16 16 16 17 18 18 18 18 18 18 18 18 17 17 16 15 14 13 12 13 13 13 12 11 9 9 9 8 9 9 10 10 9 8 8 6 6 6 3 2 6 11 15 16 16 14 12 9 7 6 5 5 5 5 6 7 8 8 7 7 7 7 6 4
18 18 17 17 17 16 15 15 15 17 18 18 18 18 18 17 16 16 15 15 14 14 15 14 14 14 13 12 11 10 9 9 9 8 8 8 8 7 6 5 5 7 9 10 7 3 3 8 11 13 12 10 7 6 5 5 5 6 7 8 10 11 11 11 10 9 9 8 6
18 18 17 17 16 15 14 13 14 14 16 17 17 17 17 16 15 15 14 13 12 12 13 13 14 14 13 12 11 10 10 9 9 8 8 8 7 6 5 4 6 9 12 13 10 7 2 3 7 9 10 8 6 6 7 7 7 8 10 11 12 13 13 13 13 12 11 10 8
18 18 17 17 16 15 14 13 12 12 13 14 15 16 15 15 14 13 12 10 9 9 10 11 11 11 10 9 10 10 10 9 9 9 8 8 8 6 5 6 8 11 15 15 12 8 3 3 6 8 9 8 7 7 9 10 11 12 14 15 15 15 15 14 13 12 11 11 10
17 17 17 16 15 14 13 12 11 11 11 11 12 13 13 12 11 10 9 8 7 8 9 9 10 10 10 9 9 8 8 9 8 7 5 3 4 4 6 8 10 13 15 15 12 8 4 4 5 7 8 7 7 8 9 10 12 14 16 16 15 15 15 14 13 13 12 12 11
16 16 16 15 14 14 13 12 11 10 9 9 8 8 9 10 9 8 7 7 7 8 9 9 9 10 10 9 6 3 3 4 3 5 6 8 7 7 9 11 12 12 12 13 11 8 5 5 4 5 6 7 8 9 10 11 12 13 15 15 14 14 13 12 12 13 14 14 14
15 15 15 14 14 14 13 12 11 10 9 7 5 5 6 6 6 6 6 6 6 7 8 8 8 7 6 6 9 13 15 15 14 13 14 14 13 12 12 13 12 10 11 13 11 9 7 6 4 4 5 7 9 10 10 11 12 12 13 12 12 12 12 10 11 12 15 17 17
14 14 14 14 14 13 13 12 12 10 8 6 4 4 4 4 4 4 4 4 4 4 4 4 5 8 11 15 16 18 18 17 17 16 15 15 14 14 13 13 11 10 11 13 12 11 9 8 7 6 6 7 9 9 10 11 13 13 12 11 11 11 12 11 10 11 13 17 21
13 14 14 14 14 14 13 13 12 10 8 6 5 5 4 4 3 3 3 4 6 8 10 12 13 14 15 16 18 18 18 17 17 17 17 16 15 15 14 13 12 11 12 14 13 12 11 11 10 8 7 7 8 9 10 11 13 13 12 10 10 10 10 10 9 10 11 13 17
12 13 14 14 14 14 14 13 13 11 9 8 7 6 4 4 6 8 10 11 13 14 14 14 16 16 16 17 17 17 18 18 18 17 16 15 15 15 15 13 13 13 13 15 15 15 14 13 13 11 8 7 7 8 10 11 13 13 12 10 10 9 9 9 9 9 10 11 12
Wind_Direction
164 165 167 167 168 169 170 171 172 174 176 179 176 174 172 172 175 177 180 182 177 174 173 173 177 183 188 189 190 192 195 198 199 200 201 203 200 194 187 185 185 184 186 187 186 186 186 185 183 182 182 182 182 184 185 186 185 184 185 185 186 185 185 184 186 186 185 185 187
166 166 166 165 166 167 168 170 172 175 177 180 177 174 173 173 175 177 181 186 183 178 175 175 182 189 193 194 193 194 196 198 199 200 202 204 203 197 189 185 184 184 185 187 186 185 186 185 183 182 183 183 182 184 186 188 185 184 185 188 188 187 187 191 193 191 189 189 189
167 167 168 167 169 170 171 173 174 175 176 177 175 175 175 175 175 177 180 186 184 181 178 179 187 195 199 200 198 196 196 198 200 201 203 205 205 200 192 186 184 184 185 187 186 186 185 184 183 182 183 184 184 185 187 189 184 184 186 190 190 188 190 196 198 197 195 196 194
170 170 171 173 174 175 175 175 175 175 175 174 172 174 176 177 176 177 178 181 181 181 181 183 189 196 201 204 203 200 198 198 202 204 206 207 206 202 195 186 184 184 185 187 187 186 185 183 183 183 183 183 185 187 188 188 184 185 189 193 192 191 192 198 200 201 201 203 200
173 174 176 177 178 178 177 175 175 175 174 173 171 174 177 178 176 175 176 177 180 181 182 184 189 196 202 206 206 203 200 200 203 206 208 210 209 206 199 189 185 184 185 187 187 186 184 181 182 183 184 184 186 189 189 186 185 186 190 194 195 195 196 199 202 202 204 206 206
176 177 178 179 179 178 177 176 176 176 175 174 173 175 177 177 176 177 179 180 180 180 181 184 189 197 204 208 208 205 202 201 205 210 213 215 213 210 204 196 188 185 184 186 186 185 182 180 181 183 184 184 188 189 188 184 185 187 190 194 197 198 199 201 203 204 205 208 210
177 178 179 179 180 179 178 176 176 176 176 176 176 178 179 178 178 180 182 182 180 179 180 185 191 197 202 207 207 205 200 196 201 211 220 224 221 216 209 202 192 186 183 183 184 183 182 180 180 180 181 182 186 187 185 183 183 186 190 194 197 199 200 203 204 205 206 208 210
177 178 178 178 179 179 178 175 175 176 178 179 180 180 181 180 180 181 183 184 182 181 181 187 194 199 202 203 202 196 188 180 185 203 221 231 226 219 211 201 192 184 179 178 179 180 180 180 179 178 178 180 182 183 183 181 182 186 191 195 197 200 203 205 206 206 207 208 210
178 178 179 178 179 179 178 175 176 178 180 182 182 182 182 182 181 181 183 185 185 183 182 188 197 201 202 199 192 182 174 169 175 191 212 225 221 212 202 192 184 178 174 173 174 176 178 179 179 177 176 177 179 180 181 181 183 187 192 196 198 202 205 208 208 208 208 209 211
178 178 178 178 179 179 177 175 177 179 181 183 182 182 182 182 181 182 184 185 184 182 183 188 197 200 199 188 179 172 170 171 178 189 202 214 213 203 191 182 177 173 170 169 171 173 175 177 178 177 177 177 178 179 181 182 186 190 194 198 201 203 206 210 210 210 210 211 212
176 177 177 178 179 178 176 175 178 180 182 182 182 182 182 182 182 182 182 181 180 181 184 187 192 194 190 179 175 174 176 180 185 191 198 206 208 202 191 181 175 172 169 168 170 172 176 179 181 180 180 179 179 181 183 186 190 194 198 202 204 205 208 211 212 212 213 213 214
175 175 176 177 177 177 176 176 178 181 182 182 182 182 182 183 182 181 179 178 180 182 184 185 188 188 186 181 180 181 184 190 192 195 198 202 205 203 197 188 180 175 172 169 170 174 180 186 187 187 186 184 184 186 189 191 194 199 203 206 207 208 211 213 214 214 215 215 216
174 175 175 176 176 177 178 178 179 181 183 183 182 182 183 184 183 181 180 180 182 184 186 186 188 189 188 186 185 186 189 194 197 199 200 200 203 203 201 196 189 183 177 173 173 176 182 188 191 192 192 191 192 194 195 196 199 203 207 210 210 212 214 215 215 216 217 216 217
176 175 175 175 176 177 179 180 180 182 183 184 183 183 183 184 184 184 184 184 185 187 188 189 190 191 192 191 189 189 191 195 200 202 203 203 203 202 202 202 199 194 188 182 180 181 185 190 192 194 195 196 198 199 200 201 204 207 210 213 214 216 217 217 217 217 217 217 219
178 177 177 176 177 178 181 182 182 182 183 184 183 183 183 184 184 186 187 188 189 190 191 192 193 195 196 196 194 193 193 196 200 204 206 207 206 204 203 204 205 204 202 197 192 190 190 193 195 196 197 198 201 202 204 205 208 212 214 216 217 218 219 219 218 217 217 217 219
180 179 179 178 179 180 182 183 183 182 182 184 184 183 183 184 184 187 189 191 192 193 194 195 196 197 198 199 199 198 197 198 201 204 207 210 209 207 205 204 206 208 209 208 206 203 200 200 201 202 202 202 204 205 206 208 211 215 217 219 220 221 221 221 219 218 218 218 220
182 182 182 181 180 181 182 184 184 183 182 183 184 184 185 184 184 187 190 192 194 196 198 198 198 198 199 200 202 202 202 201 202 204 207 210 211 210 209 207 208 209 211 212 213 212 211 208 209 210 210 210 210 210 210 211 213 216 219 221 222 223 223 222 221 220 219 219 221
184 184 183 183 181 181 182 184 185 183 181 183 184 185 186 185 185 187 190 193 196 198 199 200 200 200 200 200 202 203 204 205 205 205 206 208 211 212 212 211 211 212 213 215 216 217 217 216 215 215 216 218 217 216 215 214 216 217 219 221 223 224 224 224 222 221 220 220 222
186 185 184 183 181 181 182 185 186 184 182 182 184 186 187 187 187 187 190 194 197 198 200 201 201 201 202 201 201 203 205 207 208 207 207 207 209 211 213 214 215 216 217 219 220 221 222 221 219 218 219 220 221 220 219 218 218 218 219 221 222 223 224 224 223 222 222 221 222
186 185 184 183 182 181 182 185 187 185 182 181 184 186 187 188 188 188 190 193 196 198 200 200 201 202 202 202 202 203 205 207 209 209 209 208 208 210 212 213 215 217 219 221 223 224 225 225 223 221 220 220 221 221 221 220 219 219 219 220 221 222 223 224 224 224 224 223 223
186 184 183 182 182 182 183 186 187 185 182 181 184 186 188 188 189 189 190 192 195 197 199 200 201 201 202 202 202 202 204 206 208 209 210 209 209 209 210 211 213 215 218 220 222 224 225 225 224 222 220 219 219 219 219 219 219 219 219 220 220 222 223 223 224 225 225 225 223
186 184 183 182 182 183 184 186 187 186 183 181 184 186 188 189 190 190 190 190 193 195 198 199 200 200 201 201 201 201 202 204 206 207 208 209 209 209 209 209 211 213 215 217 219 221 222 224 223 221 220 218 217 216 216 215 216 218 219 220 221 222 223 224 224 224 225 225 223
186 184 183 183 182 183 183 185 187 185 183 181 183 186 188 189 190 189 188 188 191 193 196 198 198 199 199 199 198 198 199 201 203 205 207 207 208 209 209 210 211 213 214 217 218 219 220 221 221 219 218 216 215 215 214 214 215 217 219 222 223 223 224 224 224 225 225 225 222
186 185 184 184 183 183 184 185 186 185 183 182 184 186 188 189 190 189 188 187 189 192 194 196 197 198 198 198 197 197 198 200 202 204 206 207 208 208 209 209 210 211 213 214 214 214 214 215 217 217 217 216 215 214 214 214 216 218 220 222 224 225 225 225 224 223 221 220 215
187 186 185 185 185 185 184 185 186 185 184 183 184 186 188 190 191 190 189 188 189 191 193 195 196 198 198 199 198 198 199 200 202 204 205 207 208 208 208 208 209 210 210 211 210 209 209 209 210 213 215 215 215 215 216 217 218 219 220 222 223 224 225 224 220 216 211 205 193
187 187 186 186 186 186 186 186 187 186 186 185 186 187 189 190 191 191 191 190 191 192 194 196 197 198 200 201 201 201 201 202 203 203 204 206 207 208 207 206 207 208 208 208 207 207 207 206 206 208 210 212 213 214 216 218 219 219 219 220 221 221 221 219 213 205 193 178 157
188 188 188 187 186 186 187 187 188 188 188 187 187 188 189 190 192 193 194 194 193 193 194 196 198 199 201 203 204 204 204 204 204 204 204 205 206 207 207 206 205 206 206 206 206 206 206 206 205 205 206 208 210 211 213 216 217 218 218 219 219 218 216 212 204 193 177 156 137
189 190 189 188 187 187 187 187 188 189 190 190 189 190 190 191 192 194 195 196 195 195 195 197 198 199 201 205 206 206 205 204 204 204 204 204 205 205 205 205 204 204 204 203 205 205 206 206 206 205 203 204 207 209 210 212 213 215 215 216 216 215 212 206 196 182 167 149 133
190 191 191 191 189 187 187 187 188 189 190 191 191 191 191 192 193 194 196 197 196 196 196 197 197 198 201 204 205 204 203 202 202 202 203 204 205 205 204 202 199 196 194 193 196 200 203 205 205 205 203 202 204 206 208 210 211 211 212 213 212 209 204 195 179 162 147 134 121
190 191 192 193 192 189 187 187 188 188 189 190 191 191 192 192 193 194 195 197 197 197 196 195 195 197 199 202 201 200 198 197 196 197 198 201 203 202 199 192 185 180 178 177 181 185 190 194 197 200 200 199 201 204 207 209 208 206 205 203 196 184 166 140 122 112 107 103 99
189 191 192 194 195 193 190 188 187 187 188 189 191 192 192 193 193 194 195 196 196 196 195 193 194 197 199 201 199 197 194 191 189 189 190 193 196 196 192 183 171 162 162 169 171 173 176 180 183 186 187 188 190 194 195 194 186 177 162 144 125 111 101 92 84 79 76 77 81
189 191 192 194 196 195 192 189 187 187 188 189 190 191 193 193 194 194 194 194 194 193 192 193 195 197 199 200 200 199 195 191 186 185 186 186 190 190 187 178 148 105 72 55 163 183 180 175 173 173 173 172 174 174 169 155 133 114 99 89 84 80 77 72 65 59 55 54 58
189 190 192 194 195 195 194 190 188 188 188 189 190 191 193 194 194 193 193 193 192 191 190 192 194 196 198 199 200 200 199 195 190 187 184 183 183 183 178 160 99 59 36 17 1 328 213 179 166 159 155 153 152 146 135 116 100 89 82 75 69 65 62 59 52 44 38 32 29
189 190 191 192 194 194 194 192 190 188 188 189 190 191 192 193 193 193 193 192 190 189 189 190 192 193 195 196 197 199 200 199 194 189 185 183 181 176 162 116 70 35 17 8 5 360 343 176 153 142 134 126 120 111 103 95 89 83 77 72 64 59 55 52 48 42 35 27 26
188 189 190 191 192 193 193 193 191 189 188 189 190 190 191 191 192 192 191 189 186 184 185 187 188 189 190 192 193 195 196 197 195 192 188 185 181 169 138 89 63 33 17 6 3 4 22 125 133 127 120 111 103 97 94 91 87 81 76 70 64 59 56 54 49 43 38 31 34
187 187 188 189 190 192 193 194 193 191 190 189 189 189 188 189 189 189 186 179 177 177 178 180 181 183 185 187 190 192 194 197 196 191 183 175 168 136 100 75 51 30 15 3 2 9 39 98 115 117 113 107 101 97 94 92 87 82 78 74 68 64 61 58 54 48 43 38 38
186 185 185 186 188 190 192 194 194 194 192 188 186 184 184 185 184 182 177 169 168 170 172 173 176 179 181 181 170 135 57 22 35 51 51 34 34 50 62 60 44 26 10 1 3 14 40 81 98 108 110 109 105 101 99 96 91 87 82 78 74 69 65 62 58 53 48 44 43
184 183 182 183 186 189 192 194 195 195 193 187 179 174 172 175 176 174 169 165 167 170 172 173 171 164 145 100 74 55 42 31 34 42 47 41 35 40 50 55 42 26 10 3 7 17 35 60 73 90 103 110 110 107 104 99 95 90 86 82 77 71 66 63 59 56 53 50 49
181 180 179 180 183 186 189 192 194 194 191 183 173 162 156 157 163 164 161 161 161 157 147 129 93 80 76 73 65 56 48 43 43 46 49 49 43 43 48 53 43 28 15 9 13 23 37 52 61 73 91 107 111 110 106 101 96 92 89 86 81 75 70 65 62 60 57 54 53
178 177 176 178 181 183 186 189 190 190 187 181 174 165 154 142 123 104 91 84 71 66 66 70 69 69 71 75 75 69 62 55 52 51 51 52 48 46 46 49 42 31 21 16 20 28 40 52 60 70 85 104 110 110 107 102 97 94 91 88 86 81 76 70 67 64 60 56 53
175 175 175 177 179 180 182 184 185 185 183 182 179 170 148 106 74 67 67 71 74 75 75 75 75 75 75 76 77 75 71 64 59 55 54 53 51 48 46 45 42 35 29 24 26 32 41 51 57 65 76 99 110 111 108 104 100 97 94 91 89 87 83 77 72 67 62 58 55